EW3904 Weather Reports


Display with metric or nautical units.
time (UTC)temp
F
wind
direction
speed
MPH
gust
MPH
rain 1hr
in
rain 24hr
in
rain mn
in
humidity
%
barometer
mb
20260503222212 71 260 7.0 10.0 0.00 0.00 0.00 33 1016.4
20260503221212 71 248 6.0 8.0 0.00 0.00 0.00 33 1016.6
20260503220212 71 250 3.0 8.0 0.00 0.00 0.00 34 1016.9
20260503215212 71 269 12.0 12.0 0.00 0.00 0.00 35 1016.8
20260503213211 71 250 4.0 9.0 0.00 0.00 0.00 32 1016.8
20260503212212 71 319 3.0 8.0 0.00 0.00 0.00 33 1016.7
20260503211211 71 265 8.0 9.0 0.00 0.00 0.00 32 1016.8
20260503210211 71 247 7.0 8.0 0.00 0.00 0.00 32 1016.8
20260503205211 70 273 3.0 8.0 0.00 0.00 0.00 32 1016.8
20260503204211 71 288 6.0 9.0 0.00 0.00 0.00 33 1016.9
20260503203211 71 260 7.0 9.0 0.00 0.00 0.00 33 1017.1
20260503202211 70 340 2.0 10.0 0.00 0.00 0.00 34 1017.2
20260503201211 71 311 9.0 11.0 0.00 0.00 0.00 32 1017.2
20260503200211 70 287 3.0 10.0 0.00 0.00 0.00 33 1017.4
20260503195211 70 279 6.0 9.0 0.00 0.00 0.00 33 1017.6
20260503194211 69 258 6.0 11.0 0.00 0.00 0.00 36 1017.6
20260503193211 69 248 4.0 9.0 0.00 0.00 0.00 37 1017.8
20260503192211 70 271 3.0 9.0 0.00 0.00 0.00 35 1018.3
20260503191211 69 325 7.0 10.0 0.00 0.00 0.00 36 1018.4
20260503190211 69 273 9.0 11.0 0.00 0.00 0.00 39 1018.4
20260503185211 68 229 1.0 13.0 0.00 0.00 0.00 33 1018.9
20260503184211 68 281 7.0 10.0 0.00 0.00 0.00 39 1019.0
20260503183211 68 248 4.0 10.0 0.00 0.00 0.00 37 1019.1
20260503180210 68 259 5.0 8.0 0.00 0.00 0.00 42 1019.3
20260503175211 67 291 3.0 7.0 0.00 0.00 0.00 40 1019.3
20260503173210 66 246 3.0 4.0 0.00 0.00 0.00 37 1019.3
20260503170210 66 309 4.0 10.0 0.00 0.00 0.00 39 1019.5
20260503160210 63 314 3.0 10.0 0.00 0.00 0.00 42 1020.0
20260503150209 62 306 3.0 9.0 0.00 0.00 0.00 47 1020.3
20260503131209 56 331 1.0 5.0 0.00 0.00 0.00 70 1019.9
20260503130208 55 346 3.0 4.0 0.00 0.00 0.00 71 1019.8
20260503110207 45 315 1.0 3.0 0.00 0.01 0.00 82 1018.5
20260503090207 44 336 0.0 0.0 0.00 0.03 0.00 85 1018.1
20260503081207 46 336 0.0 0.0 0.00 0.05 0.00 82 1017.8
20260503080236 47 336 0.0 0.0 0.00 0.05 0.00 80 1017.6
20260503071206 50 317 1.0 3.0 0.00 0.06 0.00 70 1017.2
20260503070236 49 313 1.0 4.0 0.00 0.07 0.00 71 1017.1
20260503060206 46 279 0.0 0.0 0.00 0.12 0.00 83 1016.8
20260503054205 46 279 0.0 0.0 0.00 0.13 0.00 83 1016.8
20260503053236 46 279 0.0 2.0 0.00 0.13 0.00 82 1016.8
20260503052235 46 279 0.0 2.0 0.00 0.13 0.00 82 1016.8
20260503051235 46 279 0.0 0.0 0.00 0.13 0.00 82 1016.8
20260503050235 46 279 0.0 0.0 0.00 0.13 0.00 81 1016.7
20260503045205 47 279 0.0 0.0 0.00 0.13 0.00 81 1016.6
20260503044205 47 279 0.0 0.0 0.00 0.13 0.00 82 1016.4
20260503043205 48 279 0.0 0.0 0.00 0.13 0.00 82 1016.5
20260503042205 48 279 0.0 0.0 0.00 0.13 0.00 79 1016.4
20260503041235 48 279 0.0 0.0 0.00 0.13 0.00 78 1016.4
20260503035235 49 279 0.0 0.0 0.00 0.13 0.13 74 1016.1
20260503034204 50 279 0.0 2.0 0.00 0.13 0.13 74 1016.1
20260503033234 50 279 1.0 2.0 0.00 0.13 0.13 75 1016.1
20260503032235 50 279 0.0 1.0 0.00 0.13 0.13 73 1016.1
20260503031234 50 279 0.0 0.0 0.00 0.13 0.13 71 1016.1
20260503030234 51 279 0.0 1.0 0.00 0.13 0.13 71 1016.1
20260503025234 51 279 1.0 2.0 0.00 0.13 0.13 72 1015.7
20260503024234 51 279 1.0 2.0 0.00 0.13 0.13 71 1015.7
20260503023234 53 315 1.0 1.0 0.00 0.13 0.13 64 1015.7
20260503022234 53 315 0.0 1.0 0.00 0.13 0.13 63 1015.4
20260503021234 55 316 0.0 0.0 0.00 0.13 0.13 59 1015.3
20260503014234 57 325 0.0 0.0 0.00 0.13 0.13 49 1014.8
20260503013234 58 325 0.0 2.0 0.00 0.13 0.13 48 1014.7
20260503012234 58 334 0.0 2.0 0.00 0.13 0.13 48 1014.5
20260503011233 59 320 1.0 3.0 0.00 0.13 0.13 45 1014.4
20260503010233 59 346 1.0 3.0 0.00 0.13 0.13 45 1014.2
20260503005203 60 315 1.0 3.0 0.00 0.13 0.13 43 1014.0
20260503003233 61 355 4.0 7.0 0.00 0.13 0.13 41 1013.9
20260503002233 62 341 3.0 8.0 0.00 0.13 0.13 40 1013.6
20260503001203 62 338 4.0 10.0 0.00 0.13 0.13 38 1013.4
20260503000234 63 337 4.0 9.0 0.00 0.13 0.13 38 1013.4
20260502235233 64 350 4.0 16.0 0.00 0.13 0.13 36 1013.1
20260502234233 64 297 8.0 14.0 0.00 0.13 0.13 33 1013.0
20260502233233 65 16 6.0 16.0 0.00 0.13 0.13 32 1012.8
20260502232233 65 336 7.0 14.0 0.00 0.13 0.13 30 1012.9
20260502231202 66 17 8.0 14.0 0.00 0.13 0.13 33 1012.6
20260502225233 67 360 7.0 15.0 0.00 0.13 0.13 34 1012.4
20260502224232 67 351 10.0 15.0 0.00 0.13 0.13 32 1012.4
20260502223233 68 304 9.0 17.0 0.00 0.13 0.13 31 1012.4